Location: Newark
(34.1333°N, 7.9667°W)
Time: 14:06:09
(UTC+00:00)

Vanguard 2 Rocket - Pass Details

Date: 04 August 2021
Orbit: 556 x 3324 km, 32.9° (Epoch: 20 September)

Event Time Altitude Azimuth Distance (km) Brightness Sun altitude
Exits shadow 05:00:32 - 215° (SW) 3,347 9.2 -9.2°
Reaches altitude 10° 05:01:48 10° 210° (SSW) 2,914 9.0 -9.0°
Maximum altitude 05:06:51 23° 160° (SSE) 1,656 8.2 -8.1°
Drops below altitude 10° 05:10:33 10° 107° (ESE) 2,077 9.5 -7.4°
Sets 05:12:56 0° 91° (E) 2,838 10.7 -7.0°
